{"data":{"norad_id":68593,"epoch":"2026-05-25T04:00:03.998880Z","epoch_age_seconds":56518,"freshness":"FRESH","line1":"1 68593U 26072W   26145.16671295 -.01783098  00000+0 -15305+0 0  9993","line2":"2 68593  51.8885 290.8207 0013597 316.0807 325.0928 15.00576340  1300","mean_motion":15.0057634,"eccentricity":0.0013597,"inclination_deg":51.8885,"raan_deg":290.8207,"arg_perigee_deg":316.0807,"mean_anomaly_deg":325.0928,"bstar":-0.15305,"rev_number":130,"period_min":95.963128407049,"perigee_km":555.6771933219,"apogee_km":574.55868079774,"semimajor_km":6943.2549370598,"source":"CELESTRAK","updated_at":"2026-05-25T13:38:07.953094Z"}}